Voltar ao catálogo

COSMOS 2251 DEB

AtivoLEO
NORAD 33832·DEBRIS·🇷🇺 Russia

Lançado Jun 16, 1993 de Plesetsk Cosmodrome

Loading…

Próximas Passagens (próximas 24 horas)

TLE

AtualizadoSource: Space-Track

Época: Sep 14, 2026, 10:16 UTC

1 33832U 93036BZ  26257.42792400  .00003841  00000-0  74026-3 0  9998
2 33832  74.0549  42.4247 0022970   5.6563  22.4399 14.63712960924551

Acompanhe COSMOS 2251 DEB em tempo real com AllMySat

Download on the App Store